Regional Weather Roundup
Issued by NWS Albany, NY

Current Version | Previous Version | Graphics & Text | Print | Product List | Glossary On
Versions: 1 2 3 4 5 6 7 8 9 10 11 12 13 14 15 16 17 18 19 20 21 22 23 24 25 26 27 28 29 30 31 32 33 34 35 36 37 38 39 40 41 42 43 44 45 46 47 48 49 50
000
ASUS41 KALY 151610
RWRALY

NEW YORK STATE HOURLY WEATHER ROUNDUP
NATIONAL WEATHER SERVICE ALBANY NY
1200 PM EDT SUN SEP 15 2019

NOTE: "FAIR" INDICATES FEW OR NO CLOUDS BELOW 12,000 FEET WITH NO
SIGNIFICANT WEATHER AND/OR NO OBSTRUCTIONS TO VISIBILITY.

NYZ032-033-038>043-046>054-057>066-NYZ062>081-082-084-151700-
EAST


CITY           SKY/WX    TMP DP  RH WIND       PRES   REMARKS
ALBANY         PTSUNNY   72  55  55 W5        30.15F
GLENS FALLS    FAIR      70  53  54 W8        30.12F
POUGHKEEPSIE   FAIR      72  57  59 VRB3      30.15F
NEWBURGH       PTSUNNY   72  63  73 CALM      30.18F
MONTGOMERY     FAIR      70  60  70 CALM      30.16F
WHITE PLAINS   FAIR      74  58  57 NW6       30.16F
ISLIP          PTSUNNY   77  61  57 CALM      30.15S
NEW YORK CITY  PTSUNNY   77  60  55 VRB5      30.14F
CENTRAL PARK   FAIR      77  60  55 VRB3      30.18F
$$

NYZ005>009-017-018-044>046-055-056-151700-
CENTRAL


CITY           SKY/WX    TMP DP  RH WIND       PRES   REMARKS
FULTON         PTSUNNY   69  57  65 SW3       30.15F
SYRACUSE       PTSUNNY   71  58  63 W8        30.15F
ROME           PTSUNNY   68  60  75 NW9       30.16F
ELMIRA         FAIR      71  60  68 W7        30.17F
BINGHAMTON     FAIR      66  54  65 W7        30.20S
MONTICELLO     FAIR      68  55  63 CALM      30.21F
$$

NYZ026>034-041>043-087-151700-
NORTH


CITY           SKY/WX    TMP DP  RH WIND       PRES   REMARKS
WATERTOWN      FAIR      67  58  72 W9        30.14F
FORT DRUM      NOT AVBL
OGDENSBURG     PTSUNNY   64  52  63 VRB7G14   30.10S
MASSENA        FAIR      63  48  58 W14G21    30.12F
SARANAC LAKE   FAIR      61  46  57 SW9       30.12F
PLATTSBURGH    FAIR      70  46  42 W9G17     30.08F
$$

NYZ001>004-010>016-019>021-085-151700-
WEST


CITY           SKY/WX    TMP DP  RH WIND       PRES   REMARKS
NIAGARA FALLS  PTSUNNY   69  58  67 NW5       30.15F
BUFFALO        PTSUNNY   70  59  68 SW9       30.16S
DUNKIRK        CLOUDY    71  61  70 W6        30.17S
WELLSVILLE     FAIR      67  56  67 VRB6      30.23F
ROCHESTER      CLOUDY    70  60  70 NW10      30.16F
PENN YAN       FAIR      72  61  68 SW8       30.18F
$$

             KEY
       WCI = WIND CHILL INDEX
       VSB = VISIBILITY
       HX  = HEAT INDEX
$$



USA.gov is the U.S. government's official web portal to all federal, state and local government web resources and services.